N8YZF Weather Reports


time (UTC)temp
C
wind
direction
speed
KPH
gust
KPH
rain 1hr
cm
rain 24hr
cm
rain mn
cm
humidity
%
barometer
mb
20260509090507 9 175 4.8 12.9 0.00 0.00 0.00 67 998.5
20260509090306 9 198 4.8 9.7 0.00 0.00 0.00 66 998.5
20260509085457 10 203 4.8 9.7 0.00 0.00 0.00 65 998.7
20260509085005 10 208 6.4 14.5 0.00 0.00 0.00 64 998.8
20260509084453 10 227 6.4 14.5 0.00 0.00 0.00 63 998.9
20260509083952 10 182 4.8 12.9 0.00 0.00 0.00 62 998.9
20260509083452 10 213 4.8 11.3 0.00 0.00 0.00 60 998.9
20260509082955 10 186 4.8 11.3 0.00 0.00 0.00 59 999.0
20260509082752 10 227 4.8 11.3 0.00 0.00 0.00 58 999.0
20260509081949 10 200 6.4 12.9 0.00 0.00 0.00 57 999.0
20260509081919 10 238 4.8 12.9 0.00 0.00 0.00 54 999.4
20260509081913 10 202 6.4 12.9 0.00 0.00 0.00 56 999.4
20260509080447 10 189 4.8 11.3 0.00 0.00 0.00 52 999.4
20260509075940 9 163 4.8 11.3 0.00 0.00 0.00 51 999.6
20260509075438 9 207 4.8 11.3 0.00 0.00 0.00 50 999.6
20260509074918 9 201 3.2 11.3 0.00 0.00 0.00 49 999.5
20260509074418 9 150 3.2 8.0 0.00 0.00 0.00 49 999.8
20260509073918 8 188 3.2 8.0 0.00 0.00 0.00 49 999.8
20260509073722 8 202 1.6 9.7 0.00 0.00 0.00 50 999.7
20260509072918 8 191 1.6 9.7 0.00 0.00 0.00 51 1000.0
20260509072416 8 188 1.6 9.7 0.00 0.00 0.00 52 1000.0
20260509072224 7 178 1.6 8.0 0.00 0.00 0.00 52 999.8
20260509071417 7 164 1.6 6.4 0.00 0.00 0.00 55 1000.0
20260509070915 6 183 1.6 6.4 0.00 0.00 0.00 58 1000.0
20260509070411 6 139 1.6 6.4 0.00 0.00 0.00 62 999.8
20260509065855 5 145 0.0 3.2 0.00 0.00 0.00 68 1000.1
20260509065348 5 145 0.0 0.0 0.00 0.00 0.00 73 1000.1
20260509064850 5 145 0.0 3.2 0.00 0.00 0.00 74 1000.1
20260509064257 5 145 0.0 3.2 0.00 0.00 0.00 73 1000.3
20260509063750 5 143 0.0 0.0 0.00 0.00 0.00 74 1000.2
20260509063525 4 165 0.0 1.6 0.00 0.00 0.00 77 1000.2
20260509062951 4 165 0.0 1.6 0.00 0.00 0.00 79 1000.5
20260509062202 4 165 0.0 0.0 0.00 0.00 0.00 79 1000.5
20260509061657 4 165 0.0 0.0 0.00 0.00 0.00 77 1000.5
20260509061159 4 165 0.0 0.0 0.00 0.00 0.00 77 1000.6
20260509060653 4 165 0.0 0.0 0.00 0.00 0.00 76 1000.6
20260509060145 5 165 0.0 0.0 0.00 0.00 0.00 75 1000.6
20260509055640 5 165 0.0 0.0 0.00 0.00 0.00 75 1000.6
20260509055330 5 165 0.0 0.0 0.00 0.00 0.00 75 1000.6
20260509055042 5 165 0.0 0.0 0.00 0.00 0.00 74 1000.6
20260509054001 4 165 0.0 0.0 0.00 0.00 0.00 74 1000.8
20260509053452 4 165 0.0 0.0 0.00 0.00 0.00 75 1000.8
20260509052948 4 165 0.0 0.0 0.00 0.00 0.00 74 1001.0
20260509052401 4 165 0.0 0.0 0.00 0.00 0.00 74 1001.0
20260509051847 4 165 0.0 0.0 0.00 0.00 0.00 73 1001.0
20260509051347 5 165 0.0 0.0 0.00 0.00 0.00 71 1001.0
20260509050804 5 165 0.0 0.0 0.00 0.00 0.00 71 1001.0
20260509050251 5 165 0.0 0.0 0.00 0.00 0.00 72 1001.0
20260509050044 5 165 0.0 0.0 0.00 0.00 0.00 72 1001.2
20260509045249 5 165 0.0 0.0 0.00 0.00 0.00 71 1001.2
20260509044655 5 165 0.0 0.0 0.00 0.00 0.00 69 1001.2
20260509044147 5 165 0.0 0.0 0.00 0.00 0.00 70 1001.3
20260509043643 5 165 0.0 0.0 0.00 0.00 0.00 70 1001.3
20260509043143 5 165 0.0 0.0 0.00 0.00 0.00 70 1001.3
20260509042642 5 165 0.0 0.0 0.00 0.00 0.00 69 1001.5
20260509042101 5 165 0.0 0.0 0.00 0.00 0.00 69 1001.6
20260509041601 5 165 0.0 0.0 0.00 0.00 0.00 68 1001.6
20260509041100 5 165 0.0 0.0 0.00 0.00 0.00 68 1001.7
20260509040550 5 165 0.0 0.0 0.00 0.00 0.00 68 1001.7
20260509040007 5 165 0.0 0.0 0.00 0.00 0.00 67 1001.7
20260509035500 5 165 0.0 0.0 0.00 0.00 0.00 66 1001.7
20260509034954 5 165 0.0 0.0 0.00 0.00 0.00 65 1001.7
20260509034443 5 165 0.0 0.0 0.00 0.00 0.00 65 1001.7
20260509033940 5 165 0.0 0.0 0.00 0.00 0.00 65 1001.8
20260509033408 5 165 0.0 0.0 0.00 0.00 0.00 65 1001.8
20260509032906 5 165 0.0 0.0 0.00 0.00 0.00 65 1002.1
20260509032443 5 165 0.0 0.0 0.00 0.00 0.00 65 1002.1
20260509032431 5 165 0.0 0.0 0.00 0.00 0.00 64 1002.1
20260509031359 6 165 0.0 0.0 0.00 0.00 0.00 64 1002.2
20260509030802 6 165 0.0 0.0 0.00 0.00 0.00 63 1002.2
20260509030257 6 165 0.0 0.0 0.00 0.00 0.00 63 1002.3
20260509025751 6 165 0.0 0.0 0.00 0.00 0.00 63 1002.4
20260509025246 6 165 0.0 0.0 0.00 0.00 0.00 62 1002.4
20260509024706 6 165 0.0 0.0 0.00 0.00 0.00 61 1002.4
20260509024204 7 165 0.0 0.0 0.00 0.00 0.00 60 1002.5
20260509023705 7 165 0.0 0.0 0.00 0.00 0.00 59 1002.5
20260509023205 7 165 0.0 0.0 0.00 0.00 0.00 58 1002.5
20260509022704 7 165 0.0 1.6 0.00 0.00 0.00 56 1002.7
20260509022159 8 165 0.0 3.2 0.00 0.00 0.00 55 1002.7
20260509021646 8 165 1.6 6.4 0.00 0.00 0.00 54 1002.7
20260509021147 8 165 1.6 6.4 0.00 0.00 0.00 53 1002.6
20260509020552 8 190 1.6 3.2 0.00 0.00 0.00 53 1002.7
20260509015549 10 190 0.0 0.0 0.00 0.00 0.00 51 1002.8
20260509015048 10 190 0.0 0.0 0.00 0.00 0.00 48 1002.9
20260509014552 11 190 0.0 0.0 0.00 0.00 0.00 45 1002.9
20260509014052 11 190 0.0 0.0 0.00 0.00 0.00 44 1003.0
20260509013515 11 190 0.0 0.0 0.00 0.00 0.00 42 1003.0
20260509013252 12 190 0.0 0.0 0.00 0.00 0.00 41 1003.1
20260509012446 12 190 0.0 0.0 0.00 0.00 0.00 40 1003.1
20260509011943 12 190 0.0 0.0 0.00 0.00 0.00 38 1003.2
20260509011727 12 190 0.0 0.0 0.00 0.00 0.00 38 1003.2
20260509011222 13 190 0.0 3.2 0.00 0.00 0.00 38 1003.2
20260509010439 13 190 1.6 6.4 0.00 0.00 0.00 38 1003.2
20260509005912 13 190 3.2 6.4 0.00 0.00 0.00 36 1003.2
20260509005404 13 191 1.6 6.4 0.00 0.00 0.00 36 1003.2
20260509004903 13 174 1.6 4.8 0.00 0.00 0.00 36 1003.4
20260509004403 13 207 3.2 6.4 0.00 0.00 0.00 35 1003.4
20260509003857 14 207 3.2 12.9 0.00 0.00 0.00 34 1003.4
20260509003356 14 172 4.8 12.9 0.00 0.00 0.00 34 1003.4
20260509003154 14 248 3.2 11.3 0.00 0.00 0.00 33 1003.4
20260509002651 14 213 3.2 11.3 0.00 0.00 0.00 33 1003.5
20260509001844 15 223 4.8 11.3 0.00 0.00 0.00 33 1003.5
20260509001342 15 232 4.8 9.7 0.00 0.00 0.00 32 1003.5
20260509000843 15 215 3.2 8.0 0.00 0.00 0.00 31 1003.6
20260509000607 15 215 3.2 8.0 0.00 0.00 0.00 31 1003.6
20260508235807 15 278 4.8 11.3 0.00 0.00 0.00 30 1003.6
20260508235310 16 266 4.8 11.3 0.00 0.00 0.00 31 1003.6
20260508234808 16 248 4.8 12.9 0.00 0.00 0.00 30 1003.6
20260508234608 16 258 6.4 12.9 0.00 0.00 0.00 30 1003.7
20260508233802 16 220 4.8 14.5 0.00 0.00 0.00 29 1003.7
20260508233301 16 221 4.8 14.5 0.00 0.00 0.00 30 1003.7
20260508232803 16 286 4.8 11.3 0.00 0.00 0.00 30 1003.8
20260508232307 16 264 4.8 12.9 0.00 0.00 0.00 30 1003.8
20260508231802 16 287 4.8 12.9 0.00 0.00 0.00 29 1003.8
20260508231604 16 247 6.4 19.3 0.00 0.00 0.00 29 1003.8
20260508230802 17 256 4.8 19.3 0.00 0.00 0.00 28 1003.9
20260508230303 17 240 3.2 9.7 0.00 0.00 0.00 29 1003.9
20260508230056 16 187 4.8 12.9 0.00 0.00 0.00 30 1003.8
20260508225306 16 291 6.4 12.9 0.00 0.00 0.00 28 1003.8
20260508224800 17 238 4.8 12.9 0.00 0.00 0.00 27 1003.9
20260508224603 17 281 3.2 8.0 0.00 0.00 0.00 29 1003.9
20260508223747 17 221 4.8 11.3 0.00 0.00 0.00 28 1003.9
20260508223247 17 277 4.8 12.9 0.00 0.00 0.00 28 1003.9
20260508222748 17 217 4.8 12.9 0.00 0.00 0.00 27 1004.0
20260508222247 17 207 4.8 17.7 0.00 0.00 0.00 28 1004.0
20260508222040 17 220 4.8 17.7 0.00 0.00 0.00 27 1004.0
20260508221243 17 306 1.6 8.0 0.00 0.00 0.00 29 1004.1
20260508220743 17 348 1.6 6.4 0.00 0.00 0.00 30 1004.1
20260508220540 17 10 3.2 24.1 0.00 0.00 0.00 31 1004.1
20260508215704 17 247 4.8 24.1 0.00 0.00 0.00 29 1004.2
20260508215205 17 281 4.8 12.9 0.00 0.00 0.00 27 1004.2
20260508214702 17 0 4.8 12.9 0.00 0.00 0.00 27 1004.2
20260508214613 16 296 6.4 16.1 0.00 0.00 0.00 29 1004.1
20260508214608 17 214 6.4 16.1 0.00 0.00 0.00 27 1004.2
20260508213201 16 290 8.0 16.1 0.00 0.00 0.00 27 1004.1
20260508213008 16 298 6.4 14.5 0.00 0.00 0.00 28 1004.3
20260508212201 16 235 6.4 14.5 0.00 0.00 0.00 28 1004.3
20260508211701 16 293 4.8 14.5 0.00 0.00 0.00 27 1004.3
20260508211201 16 211 4.8 12.9 0.00 0.00 0.00 28 1004.4
20260508210657 16 285 6.4 17.7 0.00 0.00 0.00 29 1004.4
20260508210155 16 275 6.4 17.7 0.00 0.00 0.00 29 1004.4
20260508205656 16 222 4.8 14.5 0.00 0.00 0.00 28 1004.4
20260508205154 16 273 3.2 11.3 0.00 0.00 0.00 29 1004.4
20260508204657 16 265 3.2 11.3 0.00 0.00 0.00 29 1004.4
20260508204154 16 266 4.8 12.9 0.00 0.00 0.00 29 1004.5
20260508203655 16 298 4.8 12.9 0.00 0.00 0.00 29 1004.4
20260508203155 16 229 3.2 17.7 0.00 0.00 0.00 30 1004.4
20260508202653 16 269 3.2 17.7 0.00 0.00 0.00 29 1004.8
20260508202153 16 193 6.4 17.7 0.00 0.00 0.00 28 1004.9
20260508201653 16 304 6.4 17.7 0.00 0.00 0.00 28 1004.9
20260508201153 16 283 8.0 17.7 0.00 0.00 0.00 27 1004.9
20260508200954 16 263 8.0 17.7 0.00 0.00 0.00 28 1004.9
20260508200205 16 0 6.4 19.3 0.00 0.00 0.00 30 1004.9
20260508195652 17 288 6.4 19.3 0.00 0.00 0.00 27 1005.0
20260508195152 17 321 4.8 20.9 0.00 0.00 0.00 30 1005.0
20260508194655 17 309 4.8 20.9 0.00 0.00 0.00 27 1005.0
20260508194151 16 293 4.8 14.5 0.00 0.00 0.00 34 1005.4
20260508193646 16 281 4.8 12.9 0.00 0.00 0.00 27 1005.3
20260508193144 17 281 3.2 12.9 0.00 0.00 0.00 29 1005.4
20260508192644 17 273 3.2 11.3 0.00 0.00 0.00 29 1005.4
20260508192141 17 262 4.8 9.7 0.00 0.00 0.00 27 1005.4
20260508191108 16 355 6.4 19.3 0.00 0.00 0.00 32 1005.5
20260508190602 16 244 6.4 17.7 0.00 0.00 0.00 29 1005.5
20260508190107 16 308 6.4 16.1 0.00 0.00 0.00 31 1005.4
20260508185553 16 290 6.4 16.1 0.00 0.00 0.00 32 1005.6
20260508185055 16 308 6.4 14.5 0.00 0.00 0.00 30 1005.6
20260508184555 16 256 6.4 14.5 0.00 0.00 0.00 30 1005.6
20260508184058 16 243 3.2 14.5 0.00 0.00 0.00 30 1005.9
20260508183555 16 320 3.2 11.3 0.00 0.00 0.00 31 1005.9
20260508183052 15 347 4.8 19.3 0.00 0.00 0.00 36 1005.8
20260508182547 15 290 6.4 19.3 0.00 0.00 0.00 31 1005.9
20260508182035 15 111 6.4 17.7 0.00 0.00 0.00 31 1005.9
20260508181512 15 180 4.8 16.1 0.00 0.00 0.00 32 1005.9
20260508181010 15 179 4.8 14.5 0.00 0.00 0.00 30 1006.2
20260508180509 15 273 4.8 9.7 0.00 0.00 0.00 32 1006.2
20260508180008 15 258 6.4 16.1 0.00 0.00 0.00 34 1006.2
20260508175509 15 257 8.0 17.7 0.00 0.00 0.00 31 1006.5
20260508175008 15 292 8.0 20.9 0.00 0.00 0.00 33 1006.4
20260508174509 15 270 6.4 20.9 0.00 0.00 0.00 32 1006.4
20260508174009 15 265 6.4 12.9 0.00 0.00 0.00 32 1006.6
20260508173509 15 279 6.4 14.5 0.00 0.00 0.00 32 1006.6
20260508173318 15 234 6.4 17.7 0.00 0.00 0.00 31 1006.6
20260508172516 15 183 4.8 17.7 0.00 0.00 0.00 32 1006.9
20260508172005 15 259 3.2 17.7 0.00 0.00 0.00 35 1007.0
20260508171505 15 236 8.0 20.9 0.00 0.00 0.00 30 1006.9
20260508171004 15 262 8.0 22.5 0.00 0.00 0.00 31 1007.1
20260508170501 15 262 8.0 22.5 0.00 0.00 0.00 33 1007.1
20260508170309 15 265 8.0 22.5 0.00 0.00 0.00 33 1007.3
20260508165500 15 214 6.4 19.3 0.00 0.00 0.00 31 1007.3
20260508164958 15 279 6.4 20.9 0.00 0.00 0.00 36 1007.3
20260508164501 15 254 6.4 20.9 0.00 0.00 0.00 33 1007.6
20260508163948 15 247 6.4 17.7 0.00 0.00 0.00 33 1007.6
20260508163450 15 5 4.8 14.5 0.00 0.00 0.00 33 1007.6
20260508162949 15 273 3.2 12.9 0.00 0.00 0.00 33 1007.6
20260508162757 15 73 3.2 12.9 0.00 0.00 0.00 32 1007.6
20260508161949 14 40 4.8 17.7 0.00 0.00 0.00 32 1007.5
20260508161452 14 290 4.8 17.7 0.00 0.00 0.00 34 1007.5
20260508160950 14 200 4.8 17.7 0.00 0.00 0.00 34 1007.5
20260508160742 14 235 4.8 17.7 0.00 0.00 0.00 34 1007.5
20260508160250 14 199 8.0 16.1 0.00 0.00 0.00 33 1007.6
20260508155444 14 267 8.0 16.1 0.00 0.00 0.00 34 1007.6
20260508154943 13 217 6.4 16.1 0.00 0.00 0.00 32 1007.6
20260508154445 13 248 6.4 16.1 0.00 0.00 0.00 33 1007.5
20260508153945 13 178 6.4 14.5 0.00 0.00 0.00 32 1007.5
20260508153756 13 263 4.8 14.5 0.00 0.00 0.00 34 1007.6
20260508152946 13 265 4.8 12.9 0.00 0.00 0.00 34 1007.6
20260508152838 13 292 4.8 12.9 0.00 0.00 0.00 39 1007.6
20260508152832 13 292 4.8 12.9 0.00 0.00 0.00 36 1007.6
20260508151427 13 157 6.4 12.9 0.00 0.00 0.00 38 1007.8
20260508150915 13 281 4.8 14.5 0.00 0.00 0.00 39 1007.7
20260508150414 12 271 8.0 19.3 0.00 0.00 0.00 39 1007.7
20260508145913 12 231 9.7 19.3 0.00 0.00 0.00 39 1007.8
20260508145409 12 211 9.7 17.7 0.00 0.00 0.00 38 1007.8
20260508144904 12 161 8.0 17.7 0.00 0.00 0.00 41 1007.7
20260508144404 12 234 6.4 12.9 0.00 0.00 0.00 41 1007.8
20260508144217 12 201 6.4 12.9 0.00 0.00 0.00 41 1007.8
20260508143404 12 293 6.4 16.1 0.00 0.00 0.00 41 1007.8
20260508142857 12 231 6.4 16.1 0.00 0.00 0.00 40 1007.8
20260508142355 11 188 6.4 19.3 0.00 0.00 0.00 42 1007.8
20260508142159 11 286 8.0 19.3 0.00 0.00 0.00 45 1007.7
20260508141355 11 205 8.0 16.1 0.00 0.00 0.00 44 1007.8
20260508140905 11 231 6.4 16.1 0.00 0.00 0.00 47 1007.8
20260508140352 11 279 6.4 16.1 0.00 0.00 0.00 53 1007.8
20260508135854 10 229 4.8 11.3 0.00 0.00 0.00 53 1007.9
20260508135351 10 277 6.4 12.9 0.00 0.00 0.00 54 1007.9
20260508134850 10 214 4.8 12.9 0.00 0.00 0.00 55 1007.9
20260508134345 10 225 4.8 11.3 0.00 0.00 0.00 58 1008.0
20260508133932 10 254 3.2 11.3 0.00 0.00 0.00 59 1008.0
20260508132843 8 221 3.2 8.0 0.00 0.00 0.00 65 1008.0
20260508132312 8 225 3.2 11.3 0.00 0.00 0.00 66 1007.9
20260508131808 7 169 4.8 11.3 0.00 0.00 0.00 68 1007.9
20260508131313 7 230 3.2 9.7 0.00 0.00 0.00 71 1007.8
20260508130807 7 157 3.2 8.0 0.00 0.00 0.00 72 1007.8
20260508130306 6 173 1.6 4.8 0.00 0.00 0.00 75 1007.7
20260508125809 6 211 1.6 6.4 0.00 0.00 0.00 78 1007.8
20260508125310 6 194 1.6 6.4 0.00 0.00 0.00 80 1007.7
20260508124802 5 152 1.6 6.4 0.00 0.00 0.00 82 1007.6
20260508124255 5 157 3.2 6.4 0.00 0.00 0.00 84 1007.6
20260508123753 4 165 1.6 6.4 0.00 0.00 0.00 85 1007.5
20260508123246 3 172 1.6 6.4 0.00 0.00 0.00 87 1007.4
20260508122746 3 177 1.6 6.4 0.00 0.00 0.00 89 1007.3
20260508122242 3 173 0.0 6.4 0.00 0.00 0.00 90 1007.3
20260508121735 2 145 0.0 0.0 0.00 0.00 0.00 92 1007.2
20260508121157 2 145 0.0 0.0 0.00 0.00 0.00 93 1007.0
20260508120654 1 145 0.0 0.0 0.00 0.00 0.00 94 1007.0
20260508120142 1 145 0.0 0.0 0.00 0.00 0.00 95 1006.7
20260508115642 0 145 0.0 0.0 0.00 0.00 0.00 95 1006.7
20260508115054 0 145 0.0 0.0 0.00 0.00 0.00 95 1006.6
20260508114500 -1 211 0.0 0.0 0.00 0.00 0.00 95 1006.5
20260508113959 -1 211 0.0 0.0 0.00 0.00 0.00 95 1006.4
20260508113756 -2 211 0.0 0.0 0.00 0.00 0.00 94 1006.3
20260508113240 -2 211 0.0 0.0 0.00 0.00 0.00 94 1006.1
20260508112432 -2 211 0.0 0.0 0.00 0.00 0.00 93 1006.0
20260508111913 -2 211 0.0 0.0 0.00 0.00 0.00 93 1006.0
20260508111358 -2 211 0.0 0.0 0.00 0.00 0.00 93 1005.9
20260508110857 -3 211 0.0 0.0 0.00 0.00 0.00 93 1005.9
20260508110357 -3 211 0.0 0.0 0.00 0.00 0.00 93 1005.9
20260508105848 -3 211 0.0 0.0 0.00 0.00 0.00 93 1005.8
20260508105346 -3 211 0.0 0.0 0.00 0.00 0.00 93 1005.8
20260508104802 -3 211 0.0 0.0 0.00 0.00 0.00 93 1005.8
20260508104300 -3 211 0.0 0.0 0.00 0.00 0.00 93 1005.8
20260508104039 -3 211 0.0 0.0 0.00 0.00 0.00 93 1005.8
20260508103242 -3 211 0.0 0.0 0.00 0.00 0.00 93 1005.8
20260508102700 -3 211 0.0 0.0 0.00 0.00 0.00 93 1005.9
20260508102200 -3 211 0.0 0.0 0.00 0.00 0.00 93 1005.9
20260508101648 -3 211 0.0 0.0 0.00 0.00 0.00 93 1005.9
20260508101101 -3 211 0.0 0.0 0.00 0.00 0.00 93 1006.1
20260508100551 -3 211 0.0 0.0 0.00 0.00 0.00 93 1006.1
20260508100249 -3 211 0.0 0.0 0.00 0.00 0.00 93 1006.1
20260508095451 -3 211 0.0 0.0 0.00 0.00 0.00 93 1006.0
20260508094946 -3 211 0.0 0.0 0.00 0.00 0.00 93 1006.0
20260508094444 -3 211 0.0 0.0 0.00 0.00 0.00 93 1006.2
20260508093907 -3 211 0.0 0.0 0.00 0.00 0.00 93 1006.2
20260508093246 -3 211 0.0 0.0 0.00 0.00 0.00 93 1006.2
20260508092745 -3 211 0.0 0.0 0.00 0.00 0.00 93 1006.3
20260508092243 -3 211 0.0 0.0 0.00 0.00 0.00 93 1006.3
20260508091705 -3 211 0.0 0.0 0.00 0.00 0.00 93 1006.3
20260508091217 -2 211 0.0 0.0 0.00 0.00 0.00 93 1006.3
20260508091207 -2 211 0.0 0.0 0.00 0.00 0.00 93 1006.3